sat.trackr.live / text

‹ back to catalog

STARLINK-11625 [DTC]

NORAD 63109 · 2025-039F

PAYLOAD ACTIVE UNKNOWN

§ Identity

Operator
Country
US
Launch date
2025-02-27
Launch site
AFETR
Launch vehicle
Mass (kg)
RCS (m²)

Purposes: comms

External: N2YO · Heavens-Above · Gunter

§ Orbital elements

Epoch: 2026-05-24T10:06:12.327264Z

Period
91.67 min
Inclination
43.0019°
Eccentricity
0.0001539
Mean motion
15.70837189 rev/d
Perigee alt
355.5 km
Apogee alt
357.5 km
Semi-major
6,734.6 km
B*
5.8665e-4
RAAN
140.5743°
Arg perigee
275.1816°
Mean anomaly
84.8876°
Rev number
7,152

§ Raw data

STARLINK-11625 [DTC]1 63109U 25039F   26144.42097601  .00075504  00000+0  58665-3 0  99972 63109  43.0019 140.5743 0001539 275.1816  84.8876 15.70837189 71525

JSON: /api/v1/satellites/63109 · /tle

For live sub-satellite position, see the globe view (requires WebGL).

§ Visibility from observer

Set your observer location to see the next 7 days of passes ≥ 10°. The values pass through the URL so the page stays shareable.

No JS? Fill the form by hand. The geolocation button needs JavaScript.